Location: Unspecified
(45.0650°N, 0.0000°E)
Time: 04:20:46
(UTC+00:00)

NOAA 16 DEB - Visible Passes

Search period start: 04 April 2026 00:00
Search period end: 14 April 2026 00:00
Orbit: 768 x 838 km, 98.7° (Epoch: 27 March)

Date Brightness Start Highest point End Pass type
(mag) Time Alt. Az. Time Alt. Az. Time Alt. Az.
4 Apr ? 20:14:21 25° E 20:15:35 27° ENE 20:20:04 10° N visible
4 Apr ? 21:55:20 48° W 21:55:20 48° W 22:00:19 10° NNW visible
5 Apr ? 19:48:07 14° E 19:50:05 17° ENE 19:53:31 10° NNE visible
5 Apr ? 21:29:06 80° WSW 21:29:08 80° WSW 21:34:37 10° NNW visible
5 Apr ? 23:10:05 11° W 23:10:05 11° W 23:11:10 10° WNW visible
6 Apr ? 19:23:22 10° ENE 19:24:40 11° NE 19:25:58 10° NE visible
6 Apr ? 21:02:51 61° E 21:03:20 64° ENE 21:08:44 10° N visible
6 Apr ? 22:43:50 19° W 22:43:50 19° W 22:47:20 10° NW visible
7 Apr ? 20:36:36 36° E 20:37:38 39° ENE 20:42:39 10° N visible
7 Apr ? 22:17:35 31° W 22:17:35 31° W 22:22:14 10° NNW visible
8 Apr ? 20:10:20 21° E 20:12:01 25° ENE 20:16:23 10° N visible
8 Apr ? 21:51:19 52° WSW 21:51:26 52° W 21:56:44 10° NNW visible
9 Apr ? 19:44:04 12° E 19:46:30 16° ENE 19:49:44 10° NNE visible
9 Apr ? 21:25:03 75° S 21:25:31 85° WSW 21:30:59 10° NNW visible
9 Apr ? 23:06:02 12° W 23:06:02 12° W 23:08:02 10° WNW visible
10 Apr ? 20:58:47 52° ESE 20:59:43 59° ENE 21:05:03 10° N visible
10 Apr ? 22:39:46 21° W 22:39:48 21° W 22:43:49 10° NW visible
11 Apr ? 20:32:31 31° E 20:34:01 37° ENE 20:38:55 10° N visible
11 Apr ? 22:13:30 34° W 22:13:43 34° W 22:18:37 10° NNW visible
12 Apr ? 20:06:15 19° E 20:08:23 24° ENE 20:12:34 10° N visible
12 Apr ? 21:47:13 54° WSW 21:47:43 56° W 21:53:03 10° NNW visible
13 Apr ? 19:39:58 10° E 19:42:51 15° ENE 19:45:48 10° NNE visible
13 Apr ? 21:20:56 65° SSE 21:21:49 89° ENE 21:27:15 10° NNW visible
13 Apr ? 23:01:55 13° W 23:02:14 13° W 23:04:40 10° WNW visible
